Weather in Glendale

United States     34°11′12″N   118°14′40″W
temp.,
°C
wind,
m/s
gust,
m/s
humid.,
%
clouds,
%
prec.,
mm/h
press.,
hPa
HPBL,
m
16 may, sun
sun1623:00+12s338079 0.0 1014633
02:00+11sse238688 0.1 1013484
05:00+11sse338897 0.3 1014463
08:00+11s338998 0.3 1015519
11:00+12s338196 0.4 1016621
14:00+13s337799 0.1 1015765
17:00+13ssw327380 0.2 1014805
20:00+12s227853 0.0 1014489
17 may, mon
mon1723:00+11s228673 0.0 1016419
02:00+10se228880 0.0 1016334
05:00+10sse128951 0.1 1016265
08:00+12sse217926 0.0 1016359
11:00+18sw32545 0.0 1015832
14:00+21sw43440 0.0 10141080
17:00+20ssw42480 0.0 1013764
20:00+14se227510 0.0 1014212
18 may, tue
tue1823:00+12se238278 0.0 1015184
02:00+11se118616 0.0 1015165
05:00+11wsw118612 0.0 1014128
08:00+15wsw11653 0.0 1014337
11:00+22sw33370 0.0 1013726
14:00+26sw44270 0.0 1011919
17:00+26wsw35290 0.0 1010850
20:00+18sse00460 0.0 1011127
19 may, wed
wed1923:00+16e11400 0.0 1012109
02:00+16nne11393 0.0 101149
05:00+14ene11551 0.0 101175
08:00+17sw10480 0.0 1011295
11:00+21sw32420 0.0 1011733
14:00+23ssw43360 0.0 10091072
17:00+23ssw42430 0.0 1008842
20:00+16se33640 0.0 1009236
20 may, thu
thu2023:00+13ese34760 0.0 1011243
02:00+11se238847 0.0 1011266
05:00+11sse238674 0.0 1011420
08:00+12sw227874 0.0 1012574
11:00+15ssw326365 0.0 1011917
14:00+18ssw43450 0.0 10101163
17:00+18ssw43465 0.0 10081434
20:00+13s33624 0.0 1009324